[[{"header":{"parameterUnit":"m.s-1","parameterCategory":1,"la1":30.2991,"la2":30.254,"lo1":-89.0895,"lo2":-89.0444,"dy":0.0017,"dx":0.0017,"nx":28,"ny":28,"refTime":"2023-10-22T21:00:00:Z","depth":0,"parameterNumber":2,"parameterNumberName":"U-component_of_WINDS"},"data":[0,0,0,0,0,0,0,0,0,0,0,0,0,0,0,0,0,0,0,0,0,0,0,0,0,0,0,0,0,0,0,0,0,0,0,0,0,0,0,0,0,0,0,0,0,0,0,0,0,0,0,0,0,0,0,0,0,0,-2.973,-2.973,0,-2.9722,-2.9722,-2.9722,-2.9699,-2.9699,-2.9698,-2.9698,-2.9688,-2.9689,-2.9689,0,0,0,0,0,0,0,0,0,0,0,0,0,-2.9727,-2.9727,-2.973,-2.973,-2.973,-2.9722,-2.9722,-2.9722,-2.9699,-2.9699,-2.9698,-2.9698,-2.9688,-2.9689,-2.9689,0,0,0,0,0,0,0,0,0,0,0,0,0,-2.9725,-2.9728,-2.973,-2.9718,-2.9717,-2.9722,-2.9722,-2.9722,-2.97,-2.9699,-2.9698,-2.9697,-2.9688,-2.9689,-2.9689,-2.9705,0,0,-2.969,-2.969,0,0,0,0,0,0,0,0,-2.9725,-2.9725,-2.972,-2.9719,-2.9717,-2.9711,-2.9717,-2.9716,-2.97,-2.9706,-2.9698,-2.9697,-2.9696,-2.9696,-2.9696,-2.9705,-2.9704,-2.969,-2.969,-2.969,-2.969,0,0,0,0,0,0,0,-2.9725,-2.9725,-2.9727,-2.972,-2.9718,-2.9713,-2.9712,-2.9717,-2.9705,-2.9705,-2.9704,-2.9703,-2.9696,-2.9696,-2.9696,-2.9704,-2.969,-2.969,-2.969,-2.969,-2.9729,-2.973,0,0,0,0,0,0,-2.9727,-2.9725,-2.9727,-2.9727,-2.9719,-2.9714,-2.9712,-2.9714,-2.9705,-2.9703,-2.9704,-2.9702,-2.9696,-2.9695,-2.9695,-2.9715,-2.969,-2.969,-2.9691,-2.9728,-2.9729,-2.973,0,0,0,0,0,0,-2.9727,-2.9727,-2.9727,-2.9726,-2.9725,-2.9715,-2.9716,-2.9714,-2.9714,-2.9704,-2.9702,-2.9706,-2.9695,-2.9695,-2.9704,-2.9714,-2.9691,-2.9691,-2.9727,-2.9728,-2.9729,-2.9754,0,0,0,0,0,0,-2.9727,-2.9728,-2.9733,-2.9726,-2.9725,-2.9735,-2.9717,-2.9714,-2.9715,-2.9712,-2.9705,-2.9704,-2.9695,-2.9703,-2.9704,-2.9714,-2.9691,-2.9726,-2.9728,-2.9729,-2.9752,-2.9755,-2.9759,0,0,0,0,0,-2.9727,-2.9739,-2.9733,-2.9734,-2.9732,-2.9736,-2.9736,-2.9725,-2.9716,-2.9721,-2.9716,-2.9704,-2.9714,-2.9704,-2.9705,-2.9715,-2.9725,-2.9727,-2.9729,-2.975,-2.9755,-2.9759,0,0,0,0,0,0,-2.9746,-2.9738,-2.9731,-2.9741,-2.974,-2.9732,-2.9738,-2.973,-2.973,-2.9728,-2.9715,-2.9714,-2.9725,-2.9721,-2.9711,-2.9732,-2.9718,-2.972,-2.9734,-2.9738,-2.9741,-2.9741,-2.9691,0,0,0,0,0,-2.9752,-2.9756,-2.9748,-2.9758,-2.9758,-2.9749,-2.975,-2.9743,-2.974,-2.9739,-2.9734,-2.9732,-2.9735,-2.9736,-2.9738,-2.9752,-2.9751,-2.976,-2.9764,-2.9766,-2.9768,-2.9777,-2.9781,-2.9736,-2.9736,-2.9736,0,0,-2.9763,-2.9759,-2.9762,-2.9762,-2.976,-2.9765,-2.9748,-2.9753,-2.9757,-2.9739,-2.9747,-2.9744,-2.9741,-2.9753,-2.9758,-2.9751,-2.9781,-2.9769,-2.9771,-2.9771,-2.9779,-2.9784,-2.9787,-2.9737,-2.9737,-2.9737,0,0,-2.9785,-2.9783,-2.9791,-2.979,-2.9788,-2.9783,-2.9785,-2.978,-2.9777,-2.9785,-2.9773,-2.9778,-2.9783,-2.9782,-2.9782,-2.9809,-2.9799,-2.981,-2.9828,-2.9837,-2.984,-2.9843,-2.9853,-2.9857,-2.9812,-2.9812,-2.9812,0,-2.9799,-2.9806,-2.9797,-2.9804,-2.9805,-2.9792,-2.9801,-2.98,-2.9798,-2.98,-2.9792,-2.9799,-2.9796,-2.9809,-2.9816,-2.9816,-2.9819,-2.981,-2.9841,-2.9844,-2.9846,-2.9856,-2.986,-2.9814,-2.9814,-2.9813,-2.9813,0,-2.9823,-2.9828,-2.9836,-2.9836,-2.9838,-2.9846,-2.9839,-2.9843,-2.9837,-2.9833,-2.9843,-2.984,-2.9841,-2.9844,-2.9837,-2.9857,-2.9852,-2.9843,-2.9827,-2.9852,-2.9861,-2.9864,-2.9816,-2.9815,-2.9815,-2.9814,0,0,-2.9853,-2.9852,-2.9854,-2.9855,-2.9854,-2.9858,-2.9867,-2.987,-2.9874,-2.9874,-2.9881,-2.9888,-2.988,-2.9881,-2.9874,-2.9882,-2.9905,-2.9872,-2.9872,-2.9878,-2.9928,-2.9934,-2.9938,-2.99,-2.99,-2.9901,-2.9928,0,-2.9875,-2.9889,-2.9883,-2.9898,-2.9904,-2.9894,-2.9902,-2.9902,-2.99,-2.9904,-2.9902,-2.9907,-2.9896,-2.9896,-2.9904,-2.9901,-2.9915,-2.9899,-2.9906,-2.9907,-2.9906,-2.9943,-2.9949,-2.9974,-2.9931,-2.9932,-2.9932,0,-2.99,-2.9903,-2.9919,-2.992,-2.9922,-2.9929,-2.9933,-2.9938,-2.9939,-2.9937,-2.994,-2.9932,-2.9942,-2.9929,-2.9943,-2.9932,-2.9936,-2.9935,-2.9936,-2.9935,-2.992,-2.9942,-2.9982,-2.9985,-2.9937,-2.9937,-2.9937,0,-2.9921,-2.9929,-2.9941,-2.9942,-2.9942,-2.9948,-2.9948,-2.9949,-2.9953,-2.9957,-2.9959,-2.9964,-2.9966,-2.9971,-2.9966,-2.9957,-2.9981,-2.9967,-2.9979,-2.998,-2.9983,-2.9982,-3.0023,-2.9987,-2.9987,-2.9987,-2.9987,0,-2.9944,-2.9954,-2.995,-2.9957,-2.9969,-2.9963,-2.9975,-2.9975,-2.9977,-2.9984,-2.9976,-2.9983,-2.9977,-2.9983,-2.998,-2.9993,-2.9994,-2.9993,-2.9991,-2.9993,-2.9993,-2.9993,-2.9991,-2.9988,-2.9988,-2.9988,-2.9988,0,-2.9968,-2.9965,-2.9977,-2.9978,-2.9979,-2.9988,-2.9989,-2.9995,-2.9994,-3.0004,-3.0006,-3.0003,-3.0011,-3.0008,-3.0016,-3.0014,-3.003,-3.0027,-3.0029,-3.0028,-3.0041,-3.0039,-3.0082,-3.0087,-3.0049,-3.0049,-3.005,0,-2.9982,-2.999,-2.9993,-2.9997,-2.9999,-3.0006,-3.0011,-3.0007,-3.0011,-3.0016,-3.0023,-3.0031,-3.0036,-3.005,-3.0049,-3.0056,-3.0052,-3.0067,-3.0053,-3.0055,-3.0052,-3.0051,-3.0052,-3.0069,-3.0069,-3.007,-3.007,0,-3.0007,-3.0007,-3.0013,-3.002,-3.0026,-3.0031,-3.0035,-3.004,-3.0037,-3.0043,-3.0051,-3.0056,-3.0066,-3.0074,-3.0081,-3.0082,-3.0076,-3.0075,-3.0078,-3.0079,-3.008,-3.0079,-3.0036,-3.0073,-3.0073,-3.0073,-3.0073,-3.0072,-3.0026,-3.0034,-3.0038,-3.0046,-3.005,-3.0055,-3.0062,-3.0063,-3.007,-3.0078,-3.0076,-3.0087,-3.0091,-3.01,-3.0103,-3.0111,-3.0105,-3.011,-3.0111,-3.0112,-3.0113,-3.008,-3.0113,-3.0113,-3.0112,-3.0112,-3.0112,0,-3.0051,-3.0054,-3.0062,-3.007,-3.0077,-3.0073,-3.0078,-3.0084,-3.0094,-3.0099,-3.0106,-3.0117,-3.0126,-3.0128,-3.0136,-3.0143,-3.014,-3.0145,-3.0144,-3.0145,-3.0118,-3.0114,-3.0147,-3.0147,-3.0147,-3.0147,-3.0147,-3.0147,-3.0065,-3.0078,-3.0078,-3.0094,-3.0097,-3.0108,-3.0111,-3.0117,-3.0121,-3.0134,-3.0142,-3.0144,-3.0148,-3.0158,-3.0166,-3.0167,-3.017,-3.0176,-3.0175,-3.015,-3.0146,-3.0143,-3.0139,-3.0177,-3.0177,-3.0201,-3.0201,-3.0201]},{"header":{"parameterUnit":"m.s-1","parameterCategory":1,"la1":30.2991,"la2":30.254,"lo1":-89.0895,"lo2":-89.0444,"dy":0.0017,"dx":0.0017,"nx":28,"ny":28,"refTime":"2023-10-22T21:00:00:Z","depth":0,"parameterNumber":3,"parameterNumberName":"V-component_of_WINDS"},"data":[0,0,0,0,0,0,0,0,0,0,0,0,0,0,0,0,0,0,0,0,0,0,0,0,0,0,0,0,0,0,0,0,0,0,0,0,0,0,0,0,0,0,0,0,0,0,0,0,0,0,0,0,0,0,0,0,0,0,1.7188,1.7189,0,1.7212,1.7212,1.7212,1.7291,1.7292,1.7294,1.7296,1.7313,1.7311,1.731,0,0,0,0,0,0,0,0,0,0,0,0,0,1.7206,1.7205,1.7188,1.7189,1.7189,1.7212,1.7212,1.7212,1.729,1.7292,1.7295,1.7297,1.7313,1.7312,1.731,0,0,0,0,0,0,0,0,0,0,0,0,0,1.721,1.7205,1.7188,1.7231,1.7235,1.7212,1.7212,1.7213,1.729,1.7292,1.7295,1.7298,1.7313,1.7312,1.731,1.7246,0,0,1.7304,1.7304,0,0,0,0,0,0,0,0,1.721,1.721,1.7224,1.7228,1.7232,1.7251,1.7225,1.7223,1.7289,1.7269,1.7296,1.7299,1.729,1.729,1.7288,1.7246,1.7247,1.7304,1.7303,1.7302,1.7302,0,0,0,0,0,0,0,1.721,1.7209,1.7197,1.7224,1.7229,1.7247,1.7251,1.7225,1.7264,1.7271,1.7276,1.7278,1.7292,1.729,1.7289,1.7247,1.7304,1.7303,1.7302,1.7301,1.7156,1.7154,0,0,0,0,0,0,1.7204,1.7208,1.7197,1.7198,1.7228,1.7244,1.7249,1.7242,1.7264,1.727,1.7276,1.7282,1.7292,1.7291,1.729,1.7218,1.7302,1.7301,1.73,1.7159,1.7156,1.7153,0,0,0,0,0,0,1.7204,1.7202,1.7196,1.7205,1.7206,1.7241,1.7234,1.7241,1.7239,1.7269,1.7275,1.7267,1.7294,1.7293,1.7257,1.7219,1.73,1.7298,1.7162,1.7158,1.7154,1.7071,0,0,0,0,0,0,1.7204,1.7202,1.7179,1.7204,1.7205,1.7163,1.7231,1.724,1.7237,1.7244,1.7262,1.7267,1.7296,1.7259,1.7255,1.7218,1.7297,1.7166,1.716,1.7155,1.7077,1.7064,1.7053,0,0,0,0,0,1.7205,1.7152,1.7177,1.7175,1.7177,1.7161,1.7161,1.7198,1.7233,1.721,1.7229,1.7266,1.7224,1.7255,1.7251,1.7213,1.7168,1.7162,1.7156,1.7082,1.7067,1.7054,0,0,0,0,0,0,1.7119,1.7156,1.7184,1.7139,1.7147,1.7175,1.7146,1.718,1.7176,1.7183,1.7226,1.7229,1.7187,1.7197,1.723,1.7153,1.7203,1.7195,1.7148,1.7134,1.7122,1.712,1.7295,0,0,0,0,0,1.7095,1.7081,1.7114,1.7071,1.7074,1.7109,1.7103,1.7131,1.714,1.7143,1.7159,1.7164,1.7153,1.7144,1.7134,1.7079,1.7084,1.7051,1.7039,1.703,1.7022,1.6995,1.6981,1.7132,1.7132,1.7132,0,0,1.7044,1.7064,1.7051,1.7054,1.7063,1.7047,1.7111,1.709,1.7078,1.7139,1.7107,1.712,1.7128,1.7083,1.7064,1.709,1.6982,1.7022,1.7014,1.7012,1.6987,1.6973,1.696,1.7128,1.7129,1.7129,0,0,1.6944,1.6958,1.6924,1.6933,1.6947,1.6972,1.6964,1.6987,1.6999,1.6969,1.7015,1.7,1.6978,1.6983,1.6983,1.6888,1.6922,1.6884,1.6821,1.6794,1.6782,1.6772,1.6738,1.6726,1.6877,1.6876,1.6876,0,1.6879,1.6858,1.6901,1.6879,1.6878,1.6937,1.6902,1.6908,1.6917,1.6915,1.6945,1.6921,1.6931,1.6888,1.6866,1.6863,1.6855,1.6881,1.6781,1.6771,1.6762,1.673,1.6717,1.6872,1.6872,1.6873,1.6873,0,1.6778,1.6762,1.6733,1.6744,1.6741,1.6712,1.675,1.6741,1.677,1.6791,1.6759,1.6774,1.6769,1.6762,1.6788,1.6723,1.6739,1.6774,1.6824,1.6742,1.6713,1.6701,1.6865,1.6867,1.6868,1.6869,0,0,1.6621,1.666,1.6648,1.6655,1.6677,1.6665,1.6639,1.6637,1.6629,1.6634,1.6613,1.6595,1.6629,1.6628,1.6656,1.6632,1.6557,1.6671,1.6672,1.6649,1.6487,1.646,1.6446,1.6581,1.6579,1.6577,1.6487,0,1.6527,1.6487,1.6526,1.6478,1.6464,1.6521,1.6498,1.6508,1.6528,1.6518,1.6539,1.6526,1.6571,1.6571,1.6551,1.6571,1.6525,1.6578,1.656,1.6559,1.6556,1.6431,1.6401,1.6315,1.6476,1.6474,1.6472,0,1.641,1.6414,1.6365,1.6392,1.6388,1.6367,1.637,1.636,1.6373,1.6389,1.639,1.6425,1.6401,1.6452,1.6418,1.6453,1.6449,1.6458,1.6455,1.6454,1.651,1.6425,1.6289,1.6275,1.6455,1.6456,1.6457,0,1.6302,1.6294,1.6264,1.6268,1.6299,1.6283,1.6295,1.6311,1.6308,1.631,1.6308,1.6306,1.6305,1.6302,1.6335,1.6369,1.6298,1.6351,1.6309,1.6308,1.629,1.6291,1.615,1.6288,1.6289,1.6289,1.6289,0,1.6192,1.6159,1.6216,1.6197,1.6163,1.6209,1.6173,1.619,1.6205,1.6189,1.6237,1.6222,1.6268,1.6257,1.6282,1.6251,1.625,1.6261,1.6268,1.6257,1.6255,1.6253,1.626,1.6285,1.6286,1.6287,1.6287,0,1.6063,1.6101,1.6072,1.6105,1.6112,1.6086,1.6113,1.6097,1.6121,1.6101,1.6099,1.6136,1.6126,1.616,1.6154,1.6171,1.6126,1.6143,1.6122,1.6127,1.6083,1.6087,1.5936,1.5919,1.6068,1.6066,1.6065,0,1.599,1.5968,1.5999,1.5994,1.6004,1.5995,1.5993,1.6038,1.6034,1.6049,1.603,1.6025,1.6023,1.6004,1.6029,1.6025,1.6042,1.599,1.6041,1.6031,1.6041,1.6042,1.604,1.5978,1.5976,1.5975,1.5974,0,1.5857,1.5877,1.5875,1.5879,1.5877,1.5881,1.5889,1.5881,1.5929,1.5922,1.5914,1.5913,1.591,1.5903,1.5906,1.5916,1.5952,1.5958,1.5948,1.5935,1.5924,1.5929,1.6092,1.596,1.5962,1.5963,1.5963,1.5964,1.5754,1.5737,1.5758,1.5753,1.5765,1.5772,1.5759,1.5783,1.5777,1.578,1.5806,1.5793,1.5808,1.5815,1.5822,1.5812,1.5836,1.5821,1.5818,1.5813,1.5806,1.5927,1.5812,1.5813,1.5813,1.5813,1.5814,0,1.5623,1.564,1.5636,1.5647,1.5644,1.5682,1.5693,1.5687,1.5676,1.5688,1.5686,1.5677,1.5672,1.5698,1.5696,1.5683,1.57,1.5681,1.5682,1.5684,1.5784,1.5793,1.5668,1.5668,1.5668,1.5668,1.5668,1.5668,1.5555,1.5528,1.5551,1.5531,1.5548,1.5537,1.5541,1.5547,1.5557,1.5546,1.5543,1.5562,1.5579,1.558,1.5576,1.5584,1.5581,1.5556,1.5569,1.5662,1.5676,1.569,1.5699,1.5555,1.5555,1.547,1.5469,1.5469]}]]